| time (UTC) | temp F | wind direction | speed knots | gust knots | rain 1hr in | rain 24hr in | rain mn in | humidity % | barometer mb |
| 20260504070338 | 44 | 25 | 0.0 | 0.0 | 0.00 | 0.00 | 0.00 | 84 | 1017.4 |
| 20260504060247 | 42 | 345 | 0.0 | 0.0 | 0.00 | 0.00 | 0.00 | 87 | 1017.4 |
| 20260504050710 | 42 | 351 | 0.0 | 0.0 | 0.00 | 0.00 | 0.00 | 85 | 1017.6 |
| 20260504050206 | 42 | 351 | 0.0 | 0.0 | 0.00 | 0.00 | 0.00 | 85 | 1017.5 |
| 20260504045703 | 42 | 357 | 0.0 | 0.0 | 0.00 | 0.00 | 0.00 | 85 | 1017.4 |
| 20260504045157 | 42 | 357 | 0.0 | 0.0 | 0.00 | 0.00 | 0.00 | 85 | 1017.5 |
| 20260504044656 | 42 | 359 | 0.0 | 0.0 | 0.00 | 0.00 | 0.00 | 84 | 1017.5 |
| 20260504044153 | 42 | 0 | 0.0 | 0.0 | 0.00 | 0.00 | 0.00 | 83 | 1017.5 |
| 20260504043649 | 42 | 0 | 0.0 | 0.0 | 0.00 | 0.00 | 0.00 | 83 | 1017.6 |
| 20260504043147 | 42 | 359 | 0.0 | 0.0 | 0.00 | 0.00 | 0.00 | 83 | 1017.4 |
| 20260504042644 | 42 | 348 | 0.0 | 0.0 | 0.00 | 0.00 | 0.00 | 83 | 1017.6 |
| 20260504042141 | 43 | 9 | 0.0 | 0.0 | 0.00 | 0.00 | 0.00 | 83 | 1017.5 |
| 20260504041636 | 43 | 346 | 0.0 | 0.0 | 0.00 | 0.00 | 0.00 | 82 | 1017.6 |
| 20260504041133 | 43 | 21 | 0.0 | 0.0 | 0.00 | 0.00 | 0.00 | 81 | 1017.4 |
| 20260504040630 | 43 | 31 | 0.0 | 0.0 | 0.00 | 0.00 | 0.00 | 80 | 1017.4 |
| 20260504040127 | 44 | 54 | 0.0 | 0.0 | 0.00 | 0.00 | 0.00 | 78 | 1017.2 |
| 20260504035624 | 44 | 61 | 0.0 | 0.0 | 0.00 | 0.00 | 0.00 | 78 | 1017.4 |
| 20260504035120 | 44 | 61 | 0.0 | 0.0 | 0.00 | 0.00 | 0.00 | 76 | 1017.4 |
| 20260504034618 | 44 | 19 | 0.0 | 0.0 | 0.00 | 0.00 | 0.00 | 77 | 1017.2 |
| 20260504034115 | 44 | 21 | 0.0 | 0.0 | 0.00 | 0.00 | 0.00 | 80 | 1017.1 |
| 20260504033613 | 44 | 21 | 0.0 | 0.0 | 0.00 | 0.00 | 0.00 | 80 | 1017.1 |
| 20260504033110 | 44 | 21 | 0.0 | 0.0 | 0.00 | 0.00 | 0.00 | 79 | 1016.9 |
| 20260504032606 | 44 | 21 | 0.0 | 0.0 | 0.00 | 0.00 | 0.00 | 78 | 1017.0 |
| 20260504032104 | 45 | 21 | 0.0 | 0.0 | 0.00 | 0.00 | 0.00 | 77 | 1017.0 |
| 20260504031601 | 44 | 21 | 0.0 | 0.0 | 0.00 | 0.00 | 0.00 | 76 | 1016.9 |
| 20260504031056 | 44 | 21 | 0.0 | 0.0 | 0.00 | 0.00 | 0.00 | 77 | 1017.1 |
| 20260504030554 | 45 | 21 | 0.0 | 0.0 | 0.00 | 0.00 | 0.00 | 76 | 1016.9 |
| 20260504030050 | 45 | 24 | 0.0 | 0.0 | 0.00 | 0.00 | 0.00 | 76 | 1017.0 |
| 20260504025547 | 45 | 24 | 0.0 | 0.0 | 0.00 | 0.00 | 0.00 | 76 | 1017.2 |
| 20260504025044 | 45 | 24 | 0.0 | 0.0 | 0.00 | 0.00 | 0.00 | 76 | 1017.1 |
| 20260504024541 | 45 | 24 | 0.0 | 0.0 | 0.00 | 0.00 | 0.00 | 75 | 1017.0 |
| 20260504024038 | 45 | 24 | 0.0 | 0.0 | 0.00 | 0.00 | 0.00 | 74 | 1016.9 |
| 20260504023535 | 46 | 24 | 0.0 | 0.0 | 0.00 | 0.00 | 0.00 | 73 | 1017.0 |
| 20260504023031 | 46 | 24 | 0.0 | 0.0 | 0.00 | 0.00 | 0.00 | 72 | 1016.9 |
| 20260504022526 | 46 | 24 | 0.0 | 0.0 | 0.00 | 0.00 | 0.00 | 72 | 1016.8 |
| 20260504022023 | 46 | 24 | 0.0 | 0.0 | 0.00 | 0.00 | 0.00 | 72 | 1016.8 |
| 20260504021521 | 47 | 25 | 0.0 | 0.0 | 0.00 | 0.00 | 0.00 | 71 | 1016.9 |
| 20260504021017 | 47 | 25 | 0.0 | 0.0 | 0.00 | 0.00 | 0.00 | 70 | 1016.8 |
| 20260504020514 | 47 | 25 | 0.0 | 0.0 | 0.00 | 0.00 | 0.00 | 69 | 1017.0 |
| 20260504020011 | 47 | 25 | 0.0 | 0.0 | 0.00 | 0.00 | 0.00 | 69 | 1016.8 |
| 20260504015507 | 47 | 25 | 0.0 | 0.0 | 0.00 | 0.00 | 0.00 | 69 | 1017.0 |
| 20260504015003 | 47 | 26 | 0.0 | 0.0 | 0.00 | 0.00 | 0.00 | 68 | 1016.7 |
| 20260504014459 | 48 | 26 | 0.0 | 0.0 | 0.00 | 0.00 | 0.00 | 66 | 1016.7 |
| 20260504013956 | 48 | 36 | 0.0 | 0.0 | 0.00 | 0.00 | 0.00 | 66 | 1016.9 |
| 20260504013455 | 49 | 61 | 0.0 | 0.0 | 0.00 | 0.00 | 0.00 | 65 | 1016.7 |
| 20260504012950 | 49 | 70 | 0.0 | 0.0 | 0.00 | 0.00 | 0.00 | 62 | 1016.7 |
| 20260504012449 | 49 | 70 | 0.0 | 0.0 | 0.00 | 0.00 | 0.00 | 61 | 1016.7 |
| 20260504011946 | 50 | 70 | 0.0 | 0.0 | 0.00 | 0.00 | 0.00 | 59 | 1016.5 |
| 20260504011442 | 50 | 70 | 0.0 | 0.0 | 0.00 | 0.00 | 0.00 | 58 | 1016.3 |
| 20260504010938 | 50 | 70 | 0.0 | 0.0 | 0.00 | 0.00 | 0.00 | 58 | 1016.4 |
| 20260504010434 | 51 | 70 | 0.0 | 0.0 | 0.00 | 0.00 | 0.00 | 57 | 1016.4 |
| 20260504005931 | 52 | 70 | 0.0 | 0.0 | 0.00 | 0.00 | 0.00 | 56 | 1016.4 |
| 20260504005428 | 52 | 70 | 0.0 | 0.0 | 0.00 | 0.00 | 0.00 | 53 | 1016.5 |
| 20260504004925 | 52 | 70 | 0.0 | 0.0 | 0.00 | 0.00 | 0.00 | 57 | 1016.3 |
| 20260504004423 | 52 | 70 | 0.0 | 0.0 | 0.00 | 0.00 | 0.00 | 55 | 1016.1 |
| 20260504003919 | 53 | 70 | 0.0 | 0.0 | 0.00 | 0.00 | 0.00 | 52 | 1016.1 |
| 20260504003416 | 54 | 70 | 0.0 | 0.0 | 0.00 | 0.00 | 0.00 | 50 | 1016.1 |
| 20260504002913 | 55 | 70 | 0.0 | 0.0 | 0.00 | 0.00 | 0.00 | 47 | 1016.1 |
| 20260504002410 | 55 | 70 | 0.0 | 0.0 | 0.00 | 0.00 | 0.00 | 43 | 1016.0 |
| 20260504001907 | 56 | 70 | 0.0 | 0.0 | 0.00 | 0.00 | 0.00 | 43 | 1016.0 |
| 20260504001405 | 56 | 70 | 0.0 | 0.0 | 0.00 | 0.00 | 0.00 | 44 | 1015.9 |
| 20260504000901 | 57 | 119 | 0.0 | 0.0 | 0.00 | 0.00 | 0.00 | 42 | 1016.1 |
| 20260504000358 | 58 | 281 | 0.0 | 0.0 | 0.00 | 0.00 | 0.00 | 38 | 1015.8 |
| 20260503235855 | 58 | 307 | 0.0 | 0.0 | 0.00 | 0.00 | 0.00 | 41 | 1015.8 |
| 20260503235353 | 59 | 308 | 0.0 | 0.0 | 0.00 | 0.00 | 0.00 | 39 | 1015.7 |
| 20260503234850 | 59 | 261 | 0.0 | 0.0 | 0.00 | 0.00 | 0.00 | 36 | 1015.8 |
| 20260503234348 | 60 | 282 | 1.7 | 1.7 | 0.00 | 0.00 | 0.00 | 35 | 1015.6 |
| 20260503233845 | 60 | 117 | 0.0 | 0.0 | 0.00 | 0.00 | 0.00 | 34 | 1015.8 |
| 20260503233342 | 61 | 248 | 0.0 | 0.9 | 0.00 | 0.00 | 0.00 | 33 | 1015.6 |
| 20260503232838 | 61 | 287 | 0.0 | 0.9 | 0.00 | 0.00 | 0.00 | 33 | 1015.6 |
| 20260503232335 | 61 | 320 | 0.9 | 1.7 | 0.00 | 0.00 | 0.00 | 34 | 1015.5 |
| 20260503231827 | 61 | 1 | 0.9 | 1.7 | 0.00 | 0.00 | 0.00 | 33 | 1015.4 |
| 20260503231324 | 62 | 3 | 0.0 | 0.0 | 0.00 | 0.00 | 0.00 | 33 | 1015.4 |
| 20260503230820 | 62 | 295 | 2.6 | 2.6 | 0.00 | 0.00 | 0.00 | 32 | 1015.3 |
| 20260503230317 | 61 | 205 | 0.0 | 0.0 | 0.00 | 0.00 | 0.00 | 34 | 1015.4 |
| 20260503225815 | 61 | 266 | 0.9 | 1.7 | 0.00 | 0.00 | 0.00 | 33 | 1015.3 |
| 20260503225310 | 61 | 173 | 1.7 | 1.7 | 0.00 | 0.00 | 0.00 | 33 | 1015.4 |
| 20260503224807 | 62 | 285 | 0.0 | 0.0 | 0.00 | 0.00 | 0.00 | 32 | 1015.5 |
| 20260503224304 | 62 | 260 | 3.5 | 5.2 | 0.00 | 0.00 | 0.00 | 32 | 1015.5 |
| 20260503223802 | 62 | 309 | 1.7 | 1.7 | 0.00 | 0.00 | 0.00 | 32 | 1015.6 |
| 20260503223300 | 63 | 242 | 0.9 | 0.9 | 0.00 | 0.00 | 0.00 | 33 | 1015.5 |
| 20260503222755 | 63 | 260 | 0.9 | 1.7 | 0.00 | 0.00 | 0.00 | 32 | 1015.5 |
| 20260503222254 | 62 | 315 | 5.2 | 7.8 | 0.00 | 0.00 | 0.00 | 31 | 1015.4 |
| 20260503221752 | 62 | 236 | 1.7 | 1.7 | 0.00 | 0.00 | 0.00 | 31 | 1015.6 |
| 20260503221249 | 63 | 264 | 1.7 | 1.7 | 0.00 | 0.00 | 0.00 | 33 | 1015.4 |
| 20260503220746 | 63 | 212 | 4.3 | 6.1 | 0.00 | 0.00 | 0.00 | 30 | 1015.6 |
| 20260503220243 | 63 | 336 | 3.5 | 5.2 | 0.00 | 0.00 | 0.00 | 31 | 1015.8 |
| 20260503215739 | 64 | 266 | 1.7 | 2.6 | 0.00 | 0.00 | 0.00 | 30 | 1015.6 |
| 20260503215236 | 63 | 229 | 0.9 | 0.9 | 0.00 | 0.00 | 0.00 | 31 | 1015.4 |
| 20260503214735 | 64 | 311 | 2.6 | 3.5 | 0.00 | 0.00 | 0.00 | 30 | 1015.5 |
| 20260503214231 | 63 | 288 | 0.9 | 0.9 | 0.00 | 0.00 | 0.00 | 30 | 1015.3 |
| 20260503213729 | 63 | 285 | 3.5 | 5.2 | 0.00 | 0.00 | 0.00 | 30 | 1015.5 |
| 20260503213226 | 63 | 265 | 5.2 | 8.7 | 0.00 | 0.00 | 0.00 | 31 | 1015.4 |
| 20260503212723 | 64 | 295 | 1.7 | 2.6 | 0.00 | 0.00 | 0.00 | 30 | 1015.5 |
| 20260503212220 | 63 | 240 | 1.7 | 1.7 | 0.00 | 0.00 | 0.00 | 30 | 1015.4 |
| 20260503211718 | 62 | 230 | 1.7 | 3.5 | 0.00 | 0.00 | 0.00 | 30 | 1015.4 |
| 20260503211214 | 62 | 348 | 1.7 | 2.6 | 0.00 | 0.00 | 0.00 | 31 | 1015.7 |
| 20260503210709 | 63 | 193 | 4.3 | 8.7 | 0.00 | 0.00 | 0.00 | 30 | 1015.8 |
| 20260503210206 | 62 | 59 | 3.5 | 5.2 | 0.00 | 0.00 | 0.00 | 30 | 1015.4 |
| 20260503205656 | 63 | 304 | 1.7 | 2.6 | 0.00 | 0.00 | 0.00 | 30 | 1015.6 |
| 20260503205153 | 63 | 181 | 2.6 | 3.5 | 0.00 | 0.00 | 0.00 | 31 | 1015.5 |
| 20260503204649 | 64 | 209 | 2.6 | 3.5 | 0.00 | 0.00 | 0.00 | 29 | 1015.7 |
| 20260503204147 | 63 | 308 | 1.7 | 3.5 | 0.00 | 0.00 | 0.00 | 30 | 1015.7 |
| 20260503203644 | 63 | 243 | 3.5 | 3.5 | 0.00 | 0.00 | 0.00 | 30 | 1015.8 |
| 20260503203142 | 63 | 8 | 3.5 | 5.2 | 0.00 | 0.00 | 0.00 | 31 | 1015.9 |
| 20260503202638 | 63 | 215 | 1.7 | 2.6 | 0.00 | 0.00 | 0.00 | 31 | 1015.7 |
| 20260503202137 | 62 | 250 | 0.9 | 0.9 | 0.00 | 0.00 | 0.00 | 31 | 1015.7 |
| 20260503201634 | 62 | 69 | 0.0 | 0.9 | 0.00 | 0.00 | 0.00 | 32 | 1015.9 |
| 20260503201132 | 62 | 205 | 7.8 | 9.6 | 0.00 | 0.00 | 0.00 | 31 | 1015.7 |
| 20260503200627 | 62 | 200 | 2.6 | 5.2 | 0.00 | 0.00 | 0.00 | 31 | 1016.0 |
| 20260503200124 | 63 | 246 | 1.7 | 1.7 | 0.00 | 0.00 | 0.00 | 31 | 1015.8 |
| 20260503195621 | 64 | 313 | 3.5 | 6.1 | 0.00 | 0.00 | 0.00 | 30 | 1016.1 |
| 20260503195118 | 62 | 219 | 3.5 | 6.1 | 0.00 | 0.00 | 0.00 | 32 | 1016.4 |
| 20260503194615 | 62 | 254 | 1.7 | 1.7 | 0.00 | 0.00 | 0.00 | 32 | 1016.2 |
| 20260503194110 | 62 | 262 | 0.0 | 0.9 | 0.00 | 0.00 | 0.00 | 32 | 1016.4 |
| 20260503193607 | 63 | 329 | 1.7 | 2.6 | 0.00 | 0.00 | 0.00 | 32 | 1016.4 |
| 20260503193103 | 62 | 297 | 2.6 | 3.5 | 0.00 | 0.00 | 0.00 | 32 | 1016.4 |
| 20260503192559 | 62 | 208 | 8.7 | 15.6 | 0.00 | 0.00 | 0.00 | 32 | 1016.4 |
| 20260503192054 | 62 | 263 | 2.6 | 2.6 | 0.00 | 0.00 | 0.00 | 32 | 1016.5 |
| 20260503191551 | 61 | 354 | 4.3 | 6.1 | 0.00 | 0.00 | 0.00 | 34 | 1016.5 |
| 20260503191048 | 61 | 226 | 0.9 | 0.9 | 0.00 | 0.00 | 0.00 | 34 | 1016.7 |
| 20260503190539 | 60 | 259 | 2.6 | 2.6 | 0.00 | 0.00 | 0.00 | 34 | 1016.8 |
| 20260503190036 | 60 | 211 | 0.9 | 1.7 | 0.00 | 0.00 | 0.00 | 34 | 1016.7 |
| 20260503185532 | 60 | 294 | 1.7 | 2.6 | 0.00 | 0.00 | 0.00 | 35 | 1016.8 |
| 20260503185027 | 59 | 293 | 2.6 | 3.5 | 0.00 | 0.00 | 0.00 | 34 | 1017.1 |
| 20260503184523 | 60 | 205 | 3.5 | 6.1 | 0.00 | 0.00 | 0.00 | 34 | 1017.1 |
| 20260503184020 | 60 | 234 | 6.1 | 8.7 | 0.00 | 0.00 | 0.00 | 34 | 1017.2 |
| 20260503183517 | 60 | 136 | 4.3 | 7.0 | 0.00 | 0.00 | 0.00 | 34 | 1017.2 |
| 20260503183014 | 58 | 305 | 4.3 | 6.1 | 0.00 | 0.00 | 0.00 | 36 | 1017.2 |
| 20260503182512 | 59 | 285 | 1.7 | 2.6 | 0.00 | 0.00 | 0.00 | 36 | 1017.3 |
| 20260503182010 | 58 | 332 | 2.6 | 3.5 | 0.00 | 0.00 | 0.00 | 36 | 1017.3 |
| 20260503181507 | 57 | 321 | 0.9 | 1.7 | 0.00 | 0.00 | 0.00 | 37 | 1017.3 |
| 20260503181003 | 58 | 252 | 0.9 | 0.9 | 0.00 | 0.00 | 0.00 | 36 | 1017.5 |
| 20260503180500 | 58 | 230 | 0.0 | 0.9 | 0.00 | 0.00 | 0.00 | 36 | 1017.3 |
| 20260503175957 | 60 | 273 | 1.7 | 1.7 | 0.00 | 0.00 | 0.00 | 35 | 1017.2 |
| 20260503175455 | 57 | 291 | 1.7 | 2.6 | 0.00 | 0.00 | 0.00 | 38 | 1017.5 |
| 20260503174951 | 57 | 258 | 1.7 | 3.5 | 0.00 | 0.00 | 0.00 | 37 | 1017.5 |
| 20260503174449 | 57 | 295 | 7.0 | 8.7 | 0.00 | 0.00 | 0.00 | 36 | 1017.5 |
| 20260503173944 | 58 | 262 | 2.6 | 5.2 | 0.00 | 0.00 | 0.00 | 37 | 1017.7 |
| 20260503173440 | 58 | 260 | 3.5 | 5.2 | 0.00 | 0.00 | 0.00 | 36 | 1017.7 |
| 20260503172937 | 57 | 307 | 5.2 | 7.0 | 0.00 | 0.00 | 0.00 | 34 | 1017.5 |
| 20260503172435 | 57 | 350 | 0.0 | 0.9 | 0.00 | 0.00 | 0.00 | 35 | 1017.5 |
| 20260503171931 | 56 | 207 | 6.1 | 9.6 | 0.00 | 0.00 | 0.00 | 35 | 1017.4 |
| 20260503171427 | 57 | 6 | 0.9 | 1.7 | 0.00 | 0.00 | 0.00 | 36 | 1017.6 |
| 20260503170925 | 57 | 345 | 1.7 | 1.7 | 0.00 | 0.00 | 0.00 | 36 | 1017.7 |
| 20260503170421 | 57 | 158 | 3.5 | 7.0 | 0.00 | 0.00 | 0.00 | 36 | 1017.7 |
| 20260503150808 | 55 | 268 | 0.9 | 0.9 | 0.00 | 0.00 | 0.00 | 39 | 1018.3 |
| 20260503150303 | 53 | 20 | 0.9 | 0.9 | 0.00 | 0.00 | 0.00 | 39 | 1018.2 |
| 20260503140228 | 51 | 103 | 2.6 | 3.5 | 0.00 | 0.00 | 0.00 | 44 | 1018.6 |
| 20260503131158 | 48 | 190 | 2.6 | 3.5 | 0.00 | 0.00 | 0.00 | 50 | 1018.5 |
| 20260503130655 | 48 | 297 | 5.2 | 8.7 | 0.00 | 0.00 | 0.00 | 49 | 1018.5 |
| 20260503130153 | 48 | 329 | 1.7 | 2.6 | 0.00 | 0.00 | 0.00 | 52 | 1018.5 |
| 20260503120118 | 44 | 319 | 1.7 | 2.6 | 0.00 | 0.00 | 0.00 | 62 | 1018.3 |
| 20260503110545 | 42 | 59 | 0.0 | 0.9 | 0.00 | 0.00 | 0.00 | 71 | 1017.3 |
| 20260503090432 | 42 | 249 | 0.0 | 0.9 | 0.00 | 0.00 | 0.00 | 71 | 1015.9 |
| 20260503081358 | 42 | 327 | 1.7 | 2.6 | 0.00 | 0.00 | 0.00 | 73 | 1015.6 |
| 20260503080854 | 42 | 348 | 0.0 | 0.9 | 0.00 | 0.00 | 0.00 | 73 | 1015.5 |
| 20260503080347 | 42 | 358 | 1.7 | 1.7 | 0.00 | 0.00 | 0.00 | 73 | 1015.4 |
| 20260503072823 | 43 | 269 | 0.0 | 0.0 | 0.00 | 0.00 | 0.00 | 72 | 1015.2 |
| 20260503072320 | 43 | 274 | 1.7 | 1.7 | 0.00 | 0.00 | 0.00 | 72 | 1015.1 |
| 20260503071816 | 43 | 2 | 0.0 | 1.7 | 0.00 | 0.00 | 0.00 | 72 | 1015.1 |
| 20260503071314 | 43 | 39 | 0.9 | 1.7 | 0.00 | 0.00 | 0.00 | 71 | 1015.2 |
| 20260503070809 | 43 | 289 | 1.7 | 2.6 | 0.00 | 0.00 | 0.00 | 72 | 1014.9 |